Simultaneous Nadir Overpasses (SNOs) Predictions

Prediction of SNOs between GOES-15 and METOP-B Satellite Orbit:

Table of predicted SNOs for the next 14.0 days since TLE Epoch: 8/1/2025
Index Date Time (GOES-15) GOES-15 Lat,Lon METOP-B Lat,Lon Distance(km) Time Diff (sec)
1 08/02/2025 05:03:45 0.03, 61.39 0.29, 60.29 125.03 80
2 08/03/2025 04:40:28 -0.01, 61.40 -0.84, 65.27 439.62 80
3 08/04/2025 17:02:09 -0.05, 61.51 -0.26, 60.66 97.87 80
4 08/05/2025 16:38:52 -0.01, 61.52 0.87, 65.63 466.68 80
5 08/07/2025 05:00:25 0.07, 61.47 0.18, 61.04 49.20 80
6 08/09/2025 16:58:49 -0.08, 61.60 -0.14, 61.40 23.80 80
7 08/12/2025 04:54:24 0.09, 61.57 0.04, 61.78 24.22 80
8 08/14/2025 16:52:48 -0.11, 61.72 0.00, 62.14 48.61 80
